Regional Weather Roundup
Issued by NWS Binghamton, NY

Home | Current Version | Previous Version | Text Only | Print | Product List | Glossary On
Versions: 1 2 3 4 5 6 7 8 9 10 11 12 13 14 15 16 17 18 19 20 21 22 23 24 25 26 27 28 29 30 31 32 33 34 35 36 37 38 39 40 41 42 43 44 45 46 47 48 49 50
000
ASUS41 KBGM 272010
RWRBGM
RWRBGM
BINGHAMTON REGIONAL WEATHER ROUNDUP
NATIONAL WEATHER SERVICE BINGHAMTON NY
300 PM EST THU NOV 27 2014

Note: "fair" indicates few or no clouds below 12,000 feet with no
significant weather and/or obstructions to visibility.

* = Station(s) that does not report precipitation, such as rain,
snow, etc, also no thunder or fog.

!NYZ009-015>018-022>025-036-037-044>046-055>057-062-272100
...CENTRAL NEW YORK...

CITY           SKY/WX    TMP DP  RH WIND       PRES   REMARKS
BINGHAMTON     CLOUDY    27  23  85 NW8       29.96R WCI  19
CORTLAND       CLOUDY    30  27  86 W8        30.00R WCI  23
DANSVILLE      CLOUDY    33  24  69 N8        30.04R WCI  26
ELMIRA         PTSUNNY   34  21  59 VRB3      30.01R
ITHACA         FLURRIES  28  25  89 NW5       30.02R WCI  23
HAMILTON       CLOUDY    30  27  86 CALM      29.99R
MONTICELLO     CLOUDY    30  23  74 NW9       29.94R WCI  22
NORWICH        LGT SNOW  28  27  93 N5        29.99R WCI  23
PENN YAN       PTSUNNY   31  20  63 NW9       30.02R WCI  23
ROME           LGT SNOW  29  27  92 W7        30.03R VSB 1   WCI  22
SIDNEY         LGT SNOW  30  30 100 W3        29.98R
SYRACUSE       LGT SNOW  29  25  85 NW5       30.04R FOG     WCI  24
$$

!PAZ038>040-043-044-047-048-072-272100
...NORTHEAST PENNSYLVANIA...

CITY           SKY/WX    TMP DP  RH WIND       PRES   REMARKS
HAZLETON       CLOUDY    32  28  86 W5        29.99R WCI  27
SCRANTON       CLOUDY    33  24  69 NW13      29.99R WCI  24
TOWANDA*       CLOUDY    34  21  60 W6        30.03R WCI  29
$$
&&
KEY
WCI = WIND CHILL INDEX
VSB = VISIBILITY
HX  = HEAT INDEX
$$


USA.gov is the U.S. government's official web portal to all federal, state and local government web resources and services.